This is the latest recevied weather packets stored in our database for station/object DL9DCA-13. If no packets are shown the sender has not sent any weather packets the latest 10 day(s).
| Time | Temp. | Humidity | Pressure | Rain* | Wind** | Luminosity | Snow |
|---|---|---|---|---|---|---|---|
| 1777571412 | 18.89° C | 49% | 1022.4 hPa | - | - | - | - |
| 1777570812 | 18.89° C | 50% | 1023.3 hPa | - | - | - | - |
| 1777569612 | 18.89° C | 48% | 1023.3 hPa | - | - | - | - |
| 1777567812 | 18.33° C | 46% | 1023.9 hPa | - | - | - | - |
| 1777567212 | 18.33° C | 46% | 1023.9 hPa | - | - | - | - |
| 1777565412 | 18.33° C | 47% | 1023.9 hPa | - | - | - | - |
| 1777564812 | 18.33° C | 47% | 1023.9 hPa | - | - | - | - |
| 1777563612 | 18.33° C | 46% | 1023.9 hPa | - | - | - | - |
| 1777562412 | 18.33° C | 47% | 1023.9 hPa | - | - | - | - |
| 1777558812 | 18.33° C | 49% | 1023.9 hPa | - | - | - | - |
| 1777557612 | 18.33° C | 47% | 1023.9 hPa | - | - | - | - |
| 1777557012 | 18.33° C | 50% | 1024.9 hPa | - | - | - | - |
| 1777555812 | 18.33° C | 46% | 1024.9 hPa | - | - | - | - |
| 1777555212 | 18.89° C | 46% | 1024.9 hPa | - | - | - | - |
| 1777554611 | 18.89° C | 45% | 1024.9 hPa | - | - | - | - |
| 1777554012 | 18.89° C | 45% | 1024.9 hPa | - | - | - | - |
| 1777553412 | 18.89° C | 46% | 1025.5 hPa | - | - | - | - |
| 1777551612 | 18.89° C | 51% | 1024.9 hPa | - | - | - | - |
| 1777550412 | 18.89° C | 60% | 1025.5 hPa | - | - | - | - |
| 1777549812 | 18.89° C | 62% | 1024.9 hPa | - | - | - | - |
| 1777548012 | 18.89° C | 62% | 1025.5 hPa | - | - | - | - |
| 1777547412 | 18.89° C | 62% | 1025.5 hPa | - | - | - | - |
| 1777545011 | 18.89° C | 62% | 1026.8 hPa | - | - | - | - |
| 1777544412 | 18.89° C | 62% | 1026.8 hPa | - | - | - | - |
| 1777543812 | 18.89° C | 62% | 1027.4 hPa | - | - | - | - |
* Rain since midnight (hover to see other rain measurements)
** Current wind speed in m/s (hover to see current wind gust speed)